Regional Weather Roundup
Issued by NWS Bismarck, ND

Home | Current Version | Previous Version | Text Only | Print | Product List | Glossary On
Versions: 1 2 3 4 5 6 7 8 9 10 11 12 13 14 15 16 17 18 19 20 21 22 23 24 25 26 27 28 29 30 31 32 33 34 35 36 37 38 39 40 41 42 43 44 45 46 47 48 49 50
000
ASUS43 KBIS 311610
RWRBIS

NWR BROADCAST TEXT
NATIONAL WEATHER SERVICE BISMARCK ND
1100 AM CDT THU JUL 31 2014

NOTE: "FAIR" INDICATES FEW OR NO CLOUDS BELOW 12,000 FEET WITH NO
SIGNIFICANT WEATHER AND/OR OBSTRUCTIONS TO VISIBILITY.


CITY           SKY/WX    TMP DP  RH WIND       PRES   REMARKS
WILLISTON      MOSUNNY   74  56  53 S12       30.05F
MINOT          NOT AVBL
MINOT AFB      SUNNY     74  58  58 VRB1      30.08S
BISMARCK       SUNNY     77  59  53 CALM      30.09F
DICKINSON      MOSUNNY   75  55  49 S7        30.10S
GARRISON         N/A     75  57  53 SE6       30.09S
HETTINGER ARPT MOSUNNY   75  50  41 SW5       30.13F
JAMESTOWN      SUNNY     76  59  55 N7        30.08S
CARRINGTON     FAIR      73  66  78 NW5       30.09F
CROSBY         FAIR      73  57  56 S12       30.09S
HARVEY         FAIR      75  61  60 SW3       30.09S
HAZEN          FAIR      75  59  57 SE5       30.09F
LINTON         FAIR      75  59  57 SE5       30.10S
MANDAN         FAIR      72  59  64 SE6       30.11S
RUGBY          FAIR      73  63  68 CALM      30.08S
STANLEY        FAIR      73  61  64 SE10      30.10S
TIOGA          FAIR      72  64  78 SE6       30.13R
WATFORD CITY   FAIR      75  55  50 CALM      30.08R
$$

CITY           SKY/WX    TMP DP  RH WIND       PRES   REMARKS
GRAND FORKS    NOT AVBL
GRAND FORKS AF SUNNY     75  65  70 VRB6      30.05R
DEVILS LAKE    SUNNY     73  61  64 W5        30.06S
FARGO          SUNNY     77  58  51 W5        30.04S
CANDO          FAIR      75  59  57 CALM      30.08S
CAVALIER       FAIR      73  63  68 NW3       30.03S
GRAFTON        FAIR      75  63  64 W5        30.03S
GWINNER        SUNNY     77  59  53 NW6       30.08S
LANGDON        FAIR      75  63  64 W6        30.07S
ROLLA            N/A     75  59  57 N5        30.09F
WALHALLA       FAIR      75  66  73 CALM        N/A
$$

CITY           SKY/WX    TMP DP  RH WIND       PRES   REMARKS
ABERDEEN       SUNNY     77  55  46 CALM      30.08S
MOBRIDGE       SUNNY     75  57  53 VRB3      30.07F
BUFFALO          N/A     77  50  38 VRB3      30.09F
RAPID CITY     SUNNY     78  52  40 NE9       30.19R
GLASGOW        MOSUNNY   84  48  28 S15       30.03F
SIDNEY         PTSUNNY   75  59  57 S9        30.08F
WOLF POINT     MOSUNNY   86  47  25 S14       30.05R
GLENDIVE       MOSUNNY   77  52  41 S6        30.11S
MILES CITY     MOSUNNY   81  50  33 SE15      30.09F
BAKER          MOSUNNY   82  47  29 S10       30.15F
$$

CITY           SKY/WX    TMP DP  RH WIND       PRES   REMARKS
BILLINGS       MOSUNNY   74  45  35 S8        30.15F
GREAT FALLS    SUNNY     77  45  32 SW5       30.15S
REGINA         MOSUNNY   73  61  64 SE13      30.07S
ESTEVAN        PTSUNNY   73  61  64 E7        30.10S
$$




USA.gov is the U.S. government's official web portal to all federal, state and local government web resources and services.